Location: Songkhla
(7.2000°N, 100.6000°E)
Time: 18:09:46
(UTC+07:00)

ISS - All Passes

Search period start: 14 May 2021 00:00
Search period end: 24 May 2021 00:00
Orbit: 417 x 422 km, 51.6° (Epoch: 14 May)

Date Brightness Start Highest point End Pass type
(mag) Time Alt. Az. Time Alt. Az. Time Alt. Az.
14 May - 06:37:50 10° NW 06:41:10 70° SW 06:44:31 10° SSE daylight
14 May - 18:18:28 10° SSE 18:20:41 16° SE 18:22:53 10° E daylight
14 May - 19:55:09 10° W 19:57:17 16° NW 19:59:26 10° NNW visible
15 May - 05:50:32 10° NNW 05:53:46 45° NE 05:57:01 10° SE daylight
15 May - 19:06:47 10° WSW 19:09:51 34° NW 19:12:55 10° NNE visible
16 May - 05:03:46 10° N 05:06:21 20° NE 05:08:56 10° ESE visible
16 May - 06:41:17 10° W 06:42:56 13° SW 06:44:36 10° SSW daylight
16 May - 18:19:06 10° SW 18:22:27 86° NW 18:25:47 10° NE daylight
17 May - 05:52:37 10° WNW 05:55:34 28° SW 05:58:30 10° S daylight
17 May - 17:31:56 10° SSW 17:35:04 37° SE 17:38:10 10° NE daylight
18 May - 05:04:49 10° NW 05:08:10 69° SW 05:11:31 10° SSE visible
18 May - 16:45:26 10° SSE 16:47:40 17° SE 16:49:54 10° E daylight
18 May - 18:22:10 10° W 18:24:17 16° NW 18:26:23 10° NNW daylight
19 May - 04:17:31 10° NNW 04:20:46 46° NE 04:24:00 10° SE visible
19 May - 17:33:46 10° WSW 17:36:49 33° NW 17:39:53 10° NNE daylight
20 May - 03:30:43 10° N 03:33:19 20° NE 03:35:54 10° ESE night (unlit)
20 May - 05:08:17 10° W 05:09:54 13° SW 05:11:31 10° SSW visible
20 May - 16:46:03 10° SW 16:49:24 85° NW 16:52:44 10° NE daylight
21 May - 04:19:34 10° WNW 04:22:30 27° SW 04:25:26 10° S night (unlit)
21 May - 15:58:52 10° SSW 16:01:59 37° SE 16:05:07 10° NE daylight
22 May - 03:31:45 10° NW 03:35:05 68° SW 03:38:26 10° SSE night (unlit)
22 May - 15:12:20 10° SSE 15:14:35 17° SE 15:16:50 10° E daylight
22 May - 16:49:07 10° W 16:51:12 16° NW 16:53:17 10° NNW daylight
23 May - 02:44:25 10° NNW 02:47:39 46° NE 02:50:55 10° SE night (unlit)
23 May - 16:00:41 10° WSW 16:03:44 33° NW 16:06:47 10° NNE daylight
